Home   Weather   41°42'N, 81°18'W   Past weeks
Flag for USA

Past Weather in 41°42'N, 81°18'W, USA — Yesterday and Last 2 Weeks

Now
49 °F

Mostly cloudy.


Feels Like: 42 °F
Forecast: 52 / 47 °F
Wind: 20 mph from Northwest

Location: Cleveland-Hopkins International Airport

Current Time: Oct 17, 2019 at 5:11:25 am

Latest Report: Oct 17, 2019 at 3:51 am


Visibility: 10 mi

Pressure: 29.77 "Hg

Humidity: 64%

Dew Point: 37 °F

Location of 41°42'N, 81°18'WLocation

Past Weather in 41°42'N, 81°18'W — Graph

°F

41°42'N, 81°18'W Temperature Yesterday

Maximum temperature yesterday: 65 °F (at 12:51 am)
Minimum temperature yesterday: 48 °F (at 11:43 pm)
Average temperature yesterday: 53 °F

High & Low Weather Summary for the Past Weeks

 TemperatureHumidityPressure
High83 °F (Oct 2, 12:51 pm)97% (Oct 3, 6:51 am)30.38 "Hg (Oct 3, 6:51 am)
Low37 °F (Oct 15, 5:51 am)21% (Oct 13, 3:51 pm)29.64 "Hg (Oct 16, 4:59 am)
Average59 °F66%30.06 "Hg
* Reported Oct 2 3:51 am — Oct 17 3:51 am, 41°42'N, 81°18'W. Weather by CustomWeather, © 2019

Note: Actual official high and low records may vary slightly from our data, if they occured in-between our weather recording intervals... More about our weather records

Advertising

41°42'N, 81°18'W Weather History for the Previous 24 Hours

Scroll right to see more
 ConditionsComfort  
Time TempWeatherWind HumidityBarometerVisibility
3:51 am
Thu, Oct 17
49 °FMostly cloudy.20 mph64%29.77 "Hg10 mi
2:51 am49 °FMostly cloudy.20 mph64%29.78 "Hg10 mi
1:51 am49 °FOvercast.25 mph66%29.76 "Hg10 mi
12:51 am48 °FLight rain. Mostly cloudy.18 mph74%29.75 "Hg10 mi
12:20 am48 °FOvercast.17 mph80%29.76 "Hg10 mi
11:43 pm
Wed, Oct 16
48 °FOvercast.15 mph77%29.76 "Hg10 mi
10:51 pm50 °FMostly cloudy.24 mph66%29.75 "Hg10 mi
9:51 pm50 °FMostly cloudy.20 mph74%29.73 "Hg10 mi
8:51 pm51 °FOvercast.23 mph69%29.72 "Hg10 mi
7:51 pm50 °FLight rain. Overcast.20 mph83%29.70 "Hg7 mi
7:37 pm50 °FLight rain. Mostly cloudy.15 mph83%29.69 "Hg10 mi
6:51 pm50 °FLight rain. Mostly cloudy.15 mph86%29.68 "Hg9 mi
6:20 pm49 °FLight rain. Fog.15 mph86%29.67 "Hg4 mi
6:05 pm50 °FLight rain. Mostly cloudy.18 mph83%29.67 "Hg6 mi
5:51 pm50 °FLight rain. Cloudy.23 mph80%29.66 "Hg10 mi
4:51 pm49 °FLight rain. Mostly cloudy.22 mph86%29.66 "Hg10 mi
3:51 pm50 °FOvercast.22 mph77%29.66 "Hg10 mi
2:51 pm50 °FMostly cloudy.14 mph71%29.66 "Hg10 mi
1:51 pm50 °FOvercast.20 mph68%29.67 "Hg10 mi
1:27 pm50 °FMostly cloudy.20 mph68%29.68 "Hg10 mi
12:51 pm51 °FMostly cloudy.22 mph66%29.68 "Hg10 mi
11:51 am51 °FPartly sunny.14 mph69%29.67 "Hg10 mi
10:51 am50 °FPartly sunny.17 mph83%29.68 "Hg10 mi
9:51 am50 °FCloudy.10 mph86%29.68 "Hg10 mi
9:10 am50 °FMore clouds than sun.10 mph89%29.68 "Hg10 mi
8:51 am50 °FLight rain. Mostly cloudy.9 mph93%29.66 "Hg10 mi
8:25 am50 °FLight rain. Fog.6 mph89%29.65 "Hg6 mi
7:51 am51 °FLight rain. Fog.7 mph89%29.65 "Hg6 mi
6:58 am52 °FRain. Fog.17 mph86%29.70 "Hg5 mi
6:39 am54 °FLight rain. Mostly cloudy.21 mph86%29.69 "Hg9 mi
6:07 am56 °FLight rain. Mostly cloudy.12 mph90%29.66 "Hg8 mi
5:35 am59 °FHeavy rain. Mostly cloudy.25 mph84%29.65 "Hg2 mi
Weather by CustomWeather, © 2019

See weather overview